[[{"header":{"parameterUnit":"m.s-1","parameterCategory":2,"la1":30.2991,"la2":30.254,"lo1":-89.0895,"lo2":-89.0444,"dy":0.0017,"dx":0.0017,"nx":28,"ny":28,"refTime":"2025-01-23T09:00:00:Z","depth":"0","parameterNumber":2,"parameterNumberName":"U-component_of_CURRENTS"},"data":[0,0,0,0,0,0,0,0,0,0,0,0,0,0,0,0,0,0,0,0,0,0,0,0,0,0,0,0,0,0,0,0,0,0,0,0,0,0,0,0,0,0,0,0,0,0,0,0,0,0,0,0,0,0,0,0,0,0,-0.3296,-0.3296,0,-0.3303,-0.3303,-0.3303,-0.3218,-0.3216,-0.3213,-0.3211,-0.3144,-0.3144,-0.3144,0,0,0,0,0,0,0,0,0,0,0,0,0,-0.3308,-0.3307,-0.3296,-0.3296,-0.3296,-0.3303,-0.3303,-0.3303,-0.3218,-0.3216,-0.3213,-0.321,-0.3144,-0.3144,-0.3145,0,0,0,0,0,0,0,0,0,0,0,0,0,-0.3306,-0.3307,-0.3296,-0.3256,-0.3253,-0.3303,-0.3303,-0.3303,-0.3219,-0.3215,-0.3212,-0.3209,-0.3144,-0.3144,-0.3145,-0.3212,0,0,-0.3146,-0.3146,0,0,0,0,0,0,0,0,-0.3306,-0.3305,-0.3262,-0.3259,-0.3255,-0.3258,-0.3283,-0.327,-0.322,-0.323,-0.3211,-0.3208,-0.3179,-0.3176,-0.3183,-0.3209,-0.3206,-0.3146,-0.3146,-0.3146,-0.3146,0,0,0,0,0,0,0,-0.3306,-0.3305,-0.3297,-0.3262,-0.3258,-0.3272,-0.3267,-0.3281,-0.322,-0.3229,-0.3223,-0.3228,-0.3176,-0.3183,-0.3181,-0.3205,-0.3146,-0.3146,-0.3146,-0.3146,-0.3235,-0.3237,0,0,0,0,0,0,-0.3307,-0.3305,-0.3297,-0.3297,-0.3275,-0.3274,-0.3269,-0.3259,-0.3221,-0.3213,-0.323,-0.3224,-0.3184,-0.3181,-0.3178,-0.3216,-0.3146,-0.3146,-0.3147,-0.3233,-0.3235,-0.3238,0,0,0,0,0,0,-0.3307,-0.3306,-0.3296,-0.3304,-0.3303,-0.3277,-0.3267,-0.3261,-0.3248,-0.3224,-0.3213,-0.3222,-0.3181,-0.3178,-0.3188,-0.3214,-0.3147,-0.3147,-0.323,-0.3234,-0.3237,-0.3317,0,0,0,0,0,0,-0.3307,-0.3306,-0.3298,-0.3303,-0.3303,-0.3321,-0.327,-0.3263,-0.3258,-0.3249,-0.3214,-0.3205,-0.3179,-0.3188,-0.3189,-0.3213,-0.3147,-0.3228,-0.3232,-0.3236,-0.3312,-0.3323,-0.3332,0,0,0,0,0,-0.3307,-0.3305,-0.3297,-0.3296,-0.3292,-0.3323,-0.3325,-0.3294,-0.3261,-0.3268,-0.3247,-0.3205,-0.3213,-0.3191,-0.3191,-0.3216,-0.3226,-0.3231,-0.3235,-0.3308,-0.3321,-0.3332,0,0,0,0,0,0,-0.3316,-0.3297,-0.3287,-0.3281,-0.3302,-0.3308,-0.331,-0.33,-0.3293,-0.3274,-0.3239,-0.3232,-0.3248,-0.3233,-0.3209,-0.3255,-0.3211,-0.3216,-0.3266,-0.3278,-0.3288,-0.3266,-0.3147,0,0,0,0,0,-0.3317,-0.3297,-0.331,-0.3308,-0.3316,-0.3317,-0.3323,-0.3312,-0.3311,-0.3301,-0.3287,-0.3274,-0.3278,-0.3274,-0.3275,-0.3311,-0.3234,-0.3326,-0.3336,-0.3345,-0.3329,-0.3233,-0.3231,-0.3254,-0.3253,-0.3253,0,0,-0.3329,-0.331,-0.3305,-0.3308,-0.3314,-0.3344,-0.331,-0.3325,-0.3352,-0.33,-0.3323,-0.331,-0.3296,-0.3326,-0.3332,-0.3309,-0.3305,-0.3351,-0.3358,-0.3337,-0.3237,-0.3234,-0.3231,-0.3257,-0.3256,-0.3256,0,0,-0.3343,-0.3321,-0.3315,-0.3335,-0.3345,-0.3357,-0.3362,-0.338,-0.3381,-0.3427,-0.3384,-0.3384,-0.3412,-0.3393,-0.339,-0.3463,-0.3361,-0.3469,-0.3501,-0.3409,-0.3405,-0.34,-0.3315,-0.3302,-0.3474,-0.3474,-0.3474,0,-0.3354,-0.3342,-0.3329,-0.3342,-0.3355,-0.3364,-0.3389,-0.3419,-0.3441,-0.3431,-0.3442,-0.3435,-0.3443,-0.3432,-0.3475,-0.3482,-0.3405,-0.3454,-0.3417,-0.3411,-0.3404,-0.3317,-0.3302,-0.3479,-0.3478,-0.3478,-0.3477,0,-0.337,-0.3372,-0.3377,-0.3384,-0.3409,-0.3432,-0.3473,-0.349,-0.3502,-0.3512,-0.3513,-0.3525,-0.3497,-0.3528,-0.354,-0.3506,-0.3459,-0.3437,-0.3375,-0.3406,-0.3314,-0.3296,-0.3485,-0.3483,-0.3482,-0.3481,0,0,-0.3306,-0.3377,-0.3367,-0.3381,-0.3425,-0.3438,-0.3492,-0.3513,-0.349,-0.355,-0.3512,-0.3585,-0.3549,-0.3545,-0.3538,-0.35,-0.3436,-0.3466,-0.3459,-0.3362,-0.3217,-0.3075,-0.3041,-0.3389,-0.3386,-0.3384,-0.3174,0,-0.3302,-0.3343,-0.3381,-0.3419,-0.3429,-0.3469,-0.3508,-0.353,-0.3533,-0.3509,-0.3523,-0.3499,-0.3568,-0.3535,-0.3519,-0.3453,-0.339,-0.3494,-0.3217,-0.3209,-0.3062,-0.3016,-0.2869,-0.2658,-0.3156,-0.3153,-0.3151,0,-0.3227,-0.3277,-0.3317,-0.339,-0.3399,-0.3437,-0.3423,-0.347,-0.3456,-0.3451,-0.3427,-0.3412,-0.3404,-0.3433,-0.3331,-0.3386,-0.3308,-0.3258,-0.3247,-0.3065,-0.3032,-0.2707,-0.2606,-0.2604,-0.3122,-0.3124,-0.3126,0,-0.3062,-0.3187,-0.3212,-0.324,-0.3348,-0.3362,-0.3421,-0.3421,-0.3411,-0.3378,-0.331,-0.3313,-0.3263,-0.3209,-0.3173,-0.3224,-0.3009,-0.3051,-0.2835,-0.2825,-0.2617,-0.2592,-0.2456,-0.291,-0.291,-0.2911,-0.2912,0,-0.2931,-0.2923,-0.3149,-0.3137,-0.3145,-0.3282,-0.3245,-0.3267,-0.3289,-0.3221,-0.3255,-0.3148,-0.3197,-0.3098,-0.3089,-0.2899,-0.2929,-0.2803,-0.2742,-0.2646,-0.2627,-0.255,-0.2614,-0.2903,-0.2905,-0.2906,-0.2908,0,-0.2601,-0.2774,-0.2783,-0.2977,-0.3027,-0.3007,-0.3128,-0.3096,-0.3149,-0.3043,-0.3025,-0.2997,-0.2875,-0.2874,-0.2761,-0.2731,-0.2536,-0.251,-0.2406,-0.2336,-0.2153,-0.2228,-0.2002,-0.1957,-0.2237,-0.2232,-0.2228,0,-0.2387,-0.2388,-0.2588,-0.2599,-0.266,-0.2727,-0.2744,-0.2935,-0.2923,-0.2914,-0.2825,-0.2719,-0.2573,-0.2373,-0.2303,-0.2184,-0.2274,-0.1979,-0.2058,-0.2079,-0.2119,-0.2203,-0.2192,-0.1829,-0.1822,-0.1816,-0.1812,0,-0.1979,-0.2084,-0.2133,-0.2209,-0.2259,-0.231,-0.2407,-0.2412,-0.2602,-0.2544,-0.2447,-0.235,-0.2163,-0.196,-0.1825,-0.177,-0.1938,-0.185,-0.1879,-0.1776,-0.1845,-0.1793,-0.2066,-0.1759,-0.1765,-0.1768,-0.1771,-0.1773,-0.1641,-0.1611,-0.1759,-0.1787,-0.1852,-0.1891,-0.188,-0.2011,-0.201,-0.1967,-0.2054,-0.1848,-0.1745,-0.1511,-0.1461,-0.1328,-0.1482,-0.1322,-0.1407,-0.1487,-0.145,-0.1608,-0.1235,-0.1237,-0.1239,-0.124,-0.1242,0,-0.1272,-0.1337,-0.134,-0.143,-0.1412,-0.1565,-0.1634,-0.163,-0.1586,-0.1569,-0.151,-0.1307,-0.1129,-0.1094,-0.097,-0.0925,-0.0981,-0.0956,-0.1074,-0.1082,-0.1184,-0.1174,-0.0759,-0.0759,-0.0759,-0.0759,-0.0759,-0.0759,-0.1097,-0.1042,-0.1112,-0.1021,-0.1068,-0.1045,-0.1062,-0.1057,-0.1053,-0.0897,-0.0769,-0.0719,-0.0731,-0.0867,-0.083,-0.0797,-0.0876,-0.0801,-0.092,-0.1049,-0.1094,-0.1136,-0.1139,-0.0724,-0.0724,-0.075,-0.0751,-0.0751]},{"header":{"parameterUnit":"m.s-1","parameterCategory":2,"la1":30.2991,"la2":30.254,"lo1":-89.0895,"lo2":-89.0444,"dy":0.0017,"dx":0.0017,"nx":28,"ny":28,"refTime":"2025-01-23T09:00:00:Z","depth":"0","parameterNumber":3,"parameterNumberName":"V-component_of_CURRENTS"},"data":[0,0,0,0,0,0,0,0,0,0,0,0,0,0,0,0,0,0,0,0,0,0,0,0,0,0,0,0,0,0,0,0,0,0,0,0,0,0,0,0,0,0,0,0,0,0,0,0,0,0,0,0,0,0,0,0,0,0,-0.0572,-0.0572,0,-0.0478,-0.0477,-0.0476,-0.0426,-0.0426,-0.0426,-0.0426,-0.0287,-0.0284,-0.028,0,0,0,0,0,0,0,0,0,0,0,0,0,-0.0657,-0.0656,-0.0573,-0.0572,-0.057,-0.0479,-0.0477,-0.0476,-0.0426,-0.0426,-0.0426,-0.0426,-0.0288,-0.0284,-0.028,0,0,0,0,0,0,0,0,0,0,0,0,0,-0.0597,-0.0656,-0.0573,-0.0535,-0.0531,-0.0479,-0.0477,-0.0476,-0.0426,-0.0426,-0.0426,-0.0426,-0.029,-0.0285,-0.0279,-0.0245,0,0,-0.0262,-0.026,0,0,0,0,0,0,0,0,-0.06,-0.0594,-0.0542,-0.0538,-0.0533,-0.0465,-0.0456,-0.0397,-0.0426,-0.0465,-0.0426,-0.0426,-0.0343,-0.0333,-0.0315,-0.0238,-0.0233,-0.0262,-0.0258,-0.0256,-0.0254,0,0,0,0,0,0,0,-0.0605,-0.0597,-0.0534,-0.0541,-0.0535,-0.0505,-0.0497,-0.0445,-0.0403,-0.0461,-0.0458,-0.0449,-0.034,-0.032,-0.0311,-0.023,-0.0262,-0.0257,-0.0254,-0.0251,-0.0095,-0.0095,0,0,0,0,0,0,-0.0621,-0.0601,-0.0537,-0.0531,-0.0569,-0.0504,-0.0495,-0.0486,-0.0405,-0.0393,-0.0449,-0.0447,-0.033,-0.0318,-0.0306,-0.0279,-0.0256,-0.0251,-0.0248,-0.0096,-0.0095,-0.0094,0,0,0,0,0,0,-0.0623,-0.0616,-0.0541,-0.0565,-0.0554,-0.0503,-0.0493,-0.0484,-0.0462,-0.0396,-0.0383,-0.0436,-0.0329,-0.0314,-0.0255,-0.0272,-0.0248,-0.0243,-0.0097,-0.0096,-0.0095,-0.0213,0,0,0,0,0,0,-0.0626,-0.0618,-0.0611,-0.0566,-0.0553,-0.0517,-0.0493,-0.0482,-0.0457,-0.0453,-0.0381,-0.0368,-0.0328,-0.0264,-0.0249,-0.0264,-0.0239,-0.0098,-0.0097,-0.0095,-0.021,-0.0216,-0.0221,0,0,0,0,0,-0.0629,-0.0621,-0.0611,-0.0603,-0.0547,-0.0517,-0.0508,-0.0471,-0.0457,-0.045,-0.0396,-0.037,-0.0244,-0.0258,-0.0242,-0.0256,-0.0099,-0.0097,-0.0095,-0.0207,-0.0215,-0.0221,0,0,0,0,0,0,-0.0635,-0.0614,-0.0602,-0.0582,-0.0557,-0.051,-0.0498,-0.0473,-0.0425,-0.0422,-0.0357,-0.034,-0.0293,-0.0247,-0.0265,-0.0201,-0.0168,-0.0162,-0.0258,-0.0264,-0.027,-0.0289,-0.0234,0,0,0,0,0,-0.0639,-0.0637,-0.0605,-0.0587,-0.0583,-0.0541,-0.0522,-0.0503,-0.0458,-0.0437,-0.0387,-0.0327,-0.0272,-0.0248,-0.0189,-0.0157,-0.0108,-0.0151,-0.0157,-0.0162,-0.0163,-0.011,-0.0113,-0.0088,-0.0088,-0.0088,0,0,-0.0628,-0.0622,-0.0612,-0.059,-0.057,-0.0574,-0.053,-0.0513,-0.0508,-0.0429,-0.04,-0.0339,-0.0262,-0.0226,-0.0202,-0.0195,-0.014,-0.016,-0.0166,-0.0163,-0.0109,-0.0112,-0.0114,-0.0087,-0.0087,-0.0087,0,0,-0.063,-0.0612,-0.0622,-0.0621,-0.0609,-0.0589,-0.0589,-0.0551,-0.0527,-0.049,-0.0431,-0.0381,-0.03,-0.0258,-0.0223,-0.0217,-0.0163,-0.0196,-0.0253,-0.0204,-0.0206,-0.0208,-0.015,-0.0146,-0.021,-0.021,-0.0211,0,-0.0619,-0.0637,-0.0615,-0.0641,-0.0649,-0.0605,-0.0628,-0.0594,-0.0538,-0.0514,-0.0495,-0.0373,-0.0318,-0.027,-0.0273,-0.0234,-0.019,-0.0247,-0.0215,-0.0216,-0.0215,-0.0156,-0.015,-0.0216,-0.0215,-0.0215,-0.0214,0,-0.0635,-0.0664,-0.0673,-0.0701,-0.0701,-0.0712,-0.0687,-0.0668,-0.0635,-0.0593,-0.0531,-0.0453,-0.0383,-0.0362,-0.0319,-0.0288,-0.0251,-0.0227,-0.0214,-0.0226,-0.0161,-0.0153,-0.0224,-0.0222,-0.022,-0.0219,0,0,-0.0587,-0.067,-0.0676,-0.0725,-0.0745,-0.0747,-0.0748,-0.0725,-0.0706,-0.0651,-0.0618,-0.0538,-0.0487,-0.0442,-0.0383,-0.0348,-0.0314,-0.0299,-0.0294,-0.0267,-0.0197,-0.0132,-0.0116,-0.0291,-0.029,-0.0289,-0.0154,0,-0.0612,-0.0686,-0.0718,-0.0791,-0.0835,-0.0831,-0.0836,-0.0808,-0.0753,-0.0703,-0.0623,-0.0556,-0.0519,-0.0483,-0.0449,-0.0329,-0.0295,-0.0352,-0.0165,-0.0159,-0.0122,-0.0105,-0.0057,0.0071,-0.0145,-0.0144,-0.0143,0,-0.0625,-0.0685,-0.0759,-0.0868,-0.0883,-0.0912,-0.0913,-0.0908,-0.0829,-0.0787,-0.0719,-0.0628,-0.0552,-0.0521,-0.037,-0.0407,-0.0318,-0.0238,-0.0231,-0.0123,-0.0078,0.0054,0.0095,0.0234,-0.0129,-0.013,-0.0131,0,-0.061,-0.0724,-0.0788,-0.0821,-0.0909,-0.0939,-0.0967,-0.0922,-0.09,-0.0819,-0.0772,-0.0675,-0.0595,-0.0495,-0.0325,-0.0345,-0.0147,-0.0151,-0.0012,-0.0006,0.0099,0.0112,0.0277,-0.0057,-0.0058,-0.0058,-0.0058,0,-0.0638,-0.0702,-0.0792,-0.0832,-0.0908,-0.0959,-0.0985,-0.0986,-0.0945,-0.0901,-0.0809,-0.0735,-0.0583,-0.0438,-0.0327,-0.0126,-0.0146,-0.001,0.0035,0.0062,0.007,0.0248,0.0285,-0.0053,-0.0054,-0.0055,-0.0056,0,-0.0634,-0.0686,-0.0776,-0.0875,-0.091,-0.0956,-0.1024,-0.102,-0.0985,-0.0922,-0.0893,-0.075,-0.0566,-0.0396,-0.0192,-0.0098,0.0165,0.0138,0.0165,0.021,0.0443,0.0472,0.0672,0.0772,0.03,0.0303,0.0305,0,-0.0651,-0.0685,-0.0788,-0.0832,-0.089,-0.0962,-0.1,-0.1029,-0.102,-0.0918,-0.0886,-0.0688,-0.0549,-0.0227,-0.0005,0.0219,0.03,0.0385,0.0347,0.0478,0.0543,0.0546,0.0615,0.0444,0.0447,0.0449,0.0451,0,-0.0677,-0.0686,-0.0745,-0.0827,-0.0891,-0.0964,-0.1028,-0.1039,-0.1034,-0.0986,-0.0882,-0.076,-0.0412,-0.0116,0.02,0.0323,0.0494,0.0442,0.0578,0.0672,0.0689,0.08,0.0334,0.0473,0.0471,0.0469,0.0468,0.0467,-0.0668,-0.0701,-0.0746,-0.0828,-0.0889,-0.0958,-0.1006,-0.1051,-0.1057,-0.1005,-0.0902,-0.0732,-0.0218,0.0235,0.0377,0.0758,0.0694,0.0843,0.0869,0.0862,0.0953,0.0538,0.0723,0.0723,0.0722,0.0721,0.0721,0,-0.0666,-0.0691,-0.0757,-0.0835,-0.088,-0.0928,-0.1007,-0.1031,-0.1044,-0.1014,-0.0933,-0.0435,0.0017,0.0454,0.1029,0.1184,0.1192,0.1256,0.1273,0.1326,0.0975,0.0977,0.1227,0.1227,0.1227,0.1227,0.1227,0.1227,-0.0656,-0.07,-0.0737,-0.0803,-0.0849,-0.0912,-0.0954,-0.0985,-0.0987,-0.0855,-0.0657,-0.0476,0.0271,0.106,0.154,0.1562,0.1701,0.1664,0.1749,0.15,0.1462,0.1427,0.144,0.1783,0.1784,0.2103,0.2106,0.2108]}],[{"header":{"parameterUnit":"m.s-1","parameterCategory":2,"la1":30.2991,"la2":30.254,"lo1":-89.0895,"lo2":-89.0444,"dy":0.0017,"dx":0.0017,"nx":28,"ny":28,"refTime":"2025-01-23T09:00:00:Z","depth":"2","parameterNumber":2,"parameterNumberName":"U-component_of_CURRENTS"},"data":[0,0,0,0,0,0,0,0,0,0,0,0,0,0,0,0,0,0,0,0,0,0,0,0,0,0,0,0,0,0,0,0,0,0,0,0,0,0,0,0,0,0,0,0,0,0,0,0,0,0,0,0,0,0,0,0,0,0,-0.2429,-0.2429,0,-0.245,-0.245,-0.2451,-0.2419,-0.2418,-0.2417,-0.2416,-0.2364,-0.2363,-0.2363,0,0,0,0,0,0,0,0,0,0,0,0,0,-0.2329,-0.2331,-0.2429,-0.2429,-0.2429,-0.245,-0.245,-0.2451,-0.2419,-0.2418,-0.2416,-0.2415,-0.2364,-0.2363,-0.2363,0,0,0,0,0,0,0,0,0,0,0,0,0,-0.2364,-0.2332,-0.2429,-0.2416,-0.2415,-0.245,-0.245,-0.2451,-0.2419,-0.2418,-0.2416,-0.2414,-0.2364,-0.2363,-0.2363,-0.2395,0,0,-0.2362,-0.2361,0,0,0,0,0,0,0,0,-0.2362,-0.2368,-0.2417,-0.2417,-0.2416,-0.243,-0.2396,-0.2428,-0.242,-0.2418,-0.2416,-0.2414,-0.238,-0.2378,-0.2388,-0.2392,-0.239,-0.2362,-0.2361,-0.2361,-0.2361,0,0,0,0,0,0,0,-0.236,-0.2367,-0.2438,-0.2418,-0.2417,-0.2398,-0.2401,-0.2402,-0.2407,-0.2418,-0.2416,-0.2418,-0.2379,-0.2388,-0.2386,-0.2389,-0.2362,-0.2361,-0.2361,-0.2361,-0.2401,-0.2403,0,0,0,0,0,0,-0.2361,-0.2365,-0.2437,-0.2438,-0.2384,-0.2401,-0.2405,-0.2427,-0.2409,-0.2405,-0.2419,-0.2416,-0.239,-0.2387,-0.2384,-0.2397,-0.2361,-0.2361,-0.236,-0.24,-0.2402,-0.2403,0,0,0,0,0,0,-0.2359,-0.2368,-0.2436,-0.24,-0.2407,-0.2405,-0.243,-0.2429,-0.2447,-0.2411,-0.2405,-0.244,-0.2388,-0.2384,-0.2401,-0.2395,-0.236,-0.236,-0.2398,-0.24,-0.2402,-0.2438,0,0,0,0,0,0,-0.2356,-0.2368,-0.239,-0.2401,-0.2409,-0.2457,-0.2432,-0.243,-0.245,-0.2446,-0.2426,-0.2419,-0.2387,-0.2402,-0.2401,-0.2394,-0.236,-0.2397,-0.2399,-0.2402,-0.2435,-0.2441,-0.2446,0,0,0,0,0,-0.2353,-0.2389,-0.2392,-0.24,-0.244,-0.2458,-0.2461,-0.2452,-0.2453,-0.2463,-0.246,-0.242,-0.2416,-0.2404,-0.2402,-0.2394,-0.2395,-0.2399,-0.2402,-0.2433,-0.244,-0.2446,0,0,0,0,0,0,-0.2393,-0.2389,-0.2392,-0.2437,-0.2446,-0.2452,-0.2468,-0.2471,-0.2481,-0.2479,-0.2451,-0.2444,-0.2455,-0.2435,-0.2423,-0.2416,-0.2394,-0.2397,-0.2419,-0.2425,-0.2431,-0.2402,-0.2359,0,0,0,0,0,-0.2407,-0.2407,-0.2423,-0.2458,-0.2468,-0.2477,-0.2488,-0.2482,-0.2489,-0.2493,-0.2482,-0.2471,-0.2468,-0.2456,-0.2452,-0.2458,-0.2428,-0.245,-0.2455,-0.246,-0.2437,-0.2434,-0.2436,-0.2413,-0.2413,-0.2413,0,0,-0.2449,-0.2431,-0.2448,-0.2461,-0.2473,-0.2483,-0.2479,-0.25,-0.2499,-0.2486,-0.2496,-0.25,-0.2481,-0.2481,-0.2481,-0.2459,-0.245,-0.2464,-0.2467,-0.2441,-0.2437,-0.2439,-0.244,-0.2415,-0.2415,-0.2414,0,0,-0.248,-0.2506,-0.2502,-0.2504,-0.2501,-0.2504,-0.2516,-0.2531,-0.2529,-0.2552,-0.2536,-0.2546,-0.2545,-0.2519,-0.2508,-0.2548,-0.2492,-0.2544,-0.2529,-0.2528,-0.2529,-0.2529,-0.2485,-0.2482,-0.2531,-0.2531,-0.2531,0,-0.2515,-0.2509,-0.2513,-0.2499,-0.2503,-0.2516,-0.2526,-0.2532,-0.2547,-0.2551,-0.2555,-0.2564,-0.2557,-0.2537,-0.2543,-0.2555,-0.2531,-0.2503,-0.2532,-0.2532,-0.2532,-0.2487,-0.2483,-0.2533,-0.2533,-0.2533,-0.2533,0,-0.2526,-0.2525,-0.2531,-0.2504,-0.2527,-0.253,-0.2544,-0.2556,-0.2569,-0.2575,-0.2585,-0.2583,-0.2581,-0.2581,-0.2571,-0.2558,-0.2534,-0.2552,-0.2509,-0.2536,-0.2488,-0.2482,-0.2536,-0.2536,-0.2535,-0.2534,0,0,-0.2606,-0.2533,-0.2549,-0.2507,-0.2517,-0.2527,-0.2548,-0.2558,-0.2566,-0.2579,-0.2586,-0.2584,-0.2593,-0.258,-0.2568,-0.2548,-0.2535,-0.2541,-0.254,-0.2484,-0.2495,-0.2379,-0.2361,-0.2559,-0.2559,-0.2559,-0.2457,0,-0.2604,-0.254,-0.2535,-0.252,-0.2498,-0.2514,-0.2524,-0.2545,-0.2578,-0.2593,-0.2585,-0.2598,-0.2588,-0.2591,-0.2575,-0.2555,-0.2523,-0.2558,-0.2487,-0.2483,-0.2367,-0.2352,-0.2177,-0.2063,-0.2451,-0.245,-0.245,0,-0.2649,-0.2564,-0.2541,-0.2464,-0.2469,-0.2486,-0.2512,-0.2502,-0.2539,-0.2575,-0.2595,-0.2609,-0.2582,-0.2587,-0.2526,-0.2549,-0.2518,-0.2491,-0.2487,-0.2355,-0.2357,-0.2103,-0.2038,-0.244,-0.2441,-0.2441,-0.2442,0,-0.2695,-0.2599,-0.2557,-0.254,-0.2475,-0.2489,-0.2462,-0.2514,-0.2509,-0.2563,-0.2586,-0.259,-0.257,-0.2549,-0.2495,-0.2521,-0.2416,-0.246,-0.231,-0.2301,-0.2121,-0.2096,-0.2411,-0.2411,-0.2411,-0.2412,-0.2412,0,-0.2713,-0.2665,-0.2563,-0.2545,-0.2506,-0.247,-0.2497,-0.2493,-0.2501,-0.2482,-0.2554,-0.253,-0.256,-0.2511,-0.2485,-0.235,-0.241,-0.2278,-0.2263,-0.2128,-0.2106,-0.2416,-0.2418,-0.2408,-0.2409,-0.2409,-0.241,0,-0.2764,-0.2711,-0.2642,-0.2556,-0.2544,-0.252,-0.2495,-0.2469,-0.249,-0.2468,-0.2473,-0.2478,-0.2395,-0.2386,-0.2335,-0.2297,-0.2219,-0.2159,-0.1972,-0.1936,-0.2109,-0.2115,-0.1991,-0.1986,-0.1982,-0.1978,-0.1975,0,-0.2727,-0.2708,-0.2672,-0.2626,-0.2586,-0.2546,-0.2512,-0.2509,-0.2487,-0.2402,-0.2364,-0.229,-0.2204,-0.2077,-0.201,-0.1916,-0.2043,-0.1734,-0.1757,-0.2065,-0.2065,-0.2077,-0.2088,-0.1532,-0.1525,-0.152,-0.1516,0,-0.2612,-0.2669,-0.2601,-0.2562,-0.2539,-0.2486,-0.2427,-0.243,-0.2366,-0.2291,-0.2119,-0.2015,-0.19,-0.1708,-0.1625,-0.1572,-0.1746,-0.1622,-0.1983,-0.167,-0.1625,-0.1628,-0.1654,-0.1469,-0.1474,-0.1477,-0.148,-0.1482,-0.2506,-0.2476,-0.2449,-0.2396,-0.2371,-0.2312,-0.225,-0.2183,-0.2066,-0.1853,-0.1858,-0.1611,-0.1604,-0.1334,-0.126,-0.1232,-0.1369,-0.1352,-0.1371,-0.1396,-0.1366,-0.1316,-0.1094,-0.1096,-0.1098,-0.11,-0.1102,0,-0.2309,-0.2284,-0.2221,-0.2174,-0.2094,-0.2147,-0.2073,-0.1952,-0.1755,-0.1606,-0.1411,-0.1135,-0.0985,-0.0998,-0.0855,-0.0851,-0.0888,-0.0847,-0.0896,-0.094,-0.098,-0.0934,-0.0545,-0.0544,-0.0542,-0.0541,0,0,-0.2201,-0.2102,-0.2091,-0.1892,-0.1841,-0.1699,-0.164,-0.1466,-0.135,-0.104,-0.0871,-0.0872,-0.0912,-0.0699,-0.0676,-0.0582,-0.0764,-0.0554,-0.0992,-0.1089,-0.1128,-0.125,-0.1225,0,0,0,0,0]},{"header":{"parameterUnit":"m.s-1","parameterCategory":2,"la1":30.2991,"la2":30.254,"lo1":-89.0895,"lo2":-89.0444,"dy":0.0017,"dx":0.0017,"nx":28,"ny":28,"refTime":"2025-01-23T09:00:00:Z","depth":"2","parameterNumber":3,"parameterNumberName":"V-component_of_CURRENTS"},"data":[0,0,0,0,0,0,0,0,0,0,0,0,0,0,0,0,0,0,0,0,0,0,0,0,0,0,0,0,0,0,0,0,0,0,0,0,0,0,0,0,0,0,0,0,0,0,0,0,0,0,0,0,0,0,0,0,0,0,-0.0261,-0.026,0,-0.0201,-0.02,-0.0199,-0.015,-0.015,-0.0149,-0.0149,-0.0041,-0.0038,-0.0036,0,0,0,0,0,0,0,0,0,0,0,0,0,-0.0274,-0.0274,-0.0261,-0.026,-0.026,-0.0201,-0.02,-0.0199,-0.015,-0.015,-0.0149,-0.0149,-0.0041,-0.0038,-0.0035,0,0,0,0,0,0,0,0,0,0,0,0,0,-0.0245,-0.0274,-0.0261,-0.0229,-0.0226,-0.0201,-0.02,-0.0198,-0.015,-0.015,-0.0149,-0.0149,-0.0042,-0.0039,-0.0035,-0.0022,0,0,-0.0023,-0.0022,0,0,0,0,0,0,0,0,-0.0247,-0.0244,-0.0235,-0.0232,-0.0228,-0.0184,-0.0164,-0.0138,-0.015,-0.0177,-0.0149,-0.0148,-0.0085,-0.0078,-0.0066,-0.0017,-0.0013,-0.0023,-0.0021,-0.0019,-0.0018,0,0,0,0,0,0,0,-0.0249,-0.0246,-0.0235,-0.0234,-0.023,-0.0198,-0.0193,-0.0159,-0.0133,-0.0175,-0.0172,-0.0168,-0.0083,-0.007,-0.0063,-0.0011,-0.0023,-0.002,-0.0017,-0.0016,0.0072,0.0073,0,0,0,0,0,0,-0.0263,-0.0249,-0.0237,-0.0234,-0.0238,-0.0198,-0.0193,-0.0197,-0.0134,-0.0125,-0.0168,-0.0166,-0.0077,-0.0068,-0.0059,-0.0025,-0.0019,-0.0015,-0.0013,0.0072,0.0073,0.0073,0,0,0,0,0,0,-0.0264,-0.0263,-0.024,-0.024,-0.0235,-0.0199,-0.0203,-0.0196,-0.0186,-0.013,-0.0119,-0.0165,-0.0076,-0.0065,-0.0025,-0.0021,-0.0014,-0.001,0.0072,0.0072,0.0073,0.0034,0,0,0,0,0,0,-0.0265,-0.0264,-0.0272,-0.0242,-0.0236,-0.0232,-0.0204,-0.0196,-0.0185,-0.0181,-0.0124,-0.0113,-0.0075,-0.0031,-0.0021,-0.0016,-0.0007,0.0072,0.0072,0.0073,0.0035,0.0033,0.0031,0,0,0,0,0,-0.0265,-0.0279,-0.0273,-0.0272,-0.0249,-0.0233,-0.0227,-0.0197,-0.0185,-0.0185,-0.014,-0.0115,-0.0023,-0.0028,-0.0016,-0.0009,0.0072,0.0072,0.0073,0.0036,0.0033,0.0031,0,0,0,0,0,0,-0.0282,-0.0274,-0.0267,-0.0276,-0.026,-0.0225,-0.0222,-0.0205,-0.0171,-0.0167,-0.0112,-0.0098,-0.0061,-0.0033,-0.004,0.0016,0.0027,0.003,-0.0004,-0.0007,-0.0009,-0.0031,-0.0004,0,0,0,0,0,-0.0294,-0.0304,-0.0285,-0.0292,-0.0288,-0.0258,-0.0249,-0.0233,-0.0199,-0.0185,-0.0142,-0.0096,-0.0052,-0.0029,0.0011,0.0039,0.0071,0.005,0.0048,0.0046,0.0035,0.0093,0.0095,0.0073,0.0073,0.0073,0,0,-0.0295,-0.0298,-0.0298,-0.0296,-0.0281,-0.0283,-0.0251,-0.0245,-0.0237,-0.0178,-0.015,-0.0103,-0.0046,-0.0009,0.0009,0.0015,0.0069,0.0046,0.0044,0.0034,0.0094,0.0096,0.0098,0.0073,0.0073,0.0073,0,0,-0.0312,-0.0315,-0.0329,-0.0326,-0.032,-0.0305,-0.0308,-0.0279,-0.0257,-0.0229,-0.0178,-0.0129,-0.0074,-0.0023,0.0008,0.0015,0.0055,0.0023,-0.0004,0.0053,0.0055,0.0058,0.0101,0.0108,0.0022,0.0022,0.0022,0,-0.0317,-0.0335,-0.0328,-0.0345,-0.0346,-0.032,-0.0332,-0.0308,-0.0266,-0.0245,-0.0229,-0.0127,-0.0078,-0.0018,-0.0015,0.001,0.0041,0.0003,0.005,0.0053,0.0056,0.01,0.0108,0.002,0.0021,0.0021,0.0021,0,-0.0345,-0.0358,-0.0367,-0.0384,-0.0386,-0.0391,-0.0369,-0.0359,-0.0333,-0.0297,-0.0238,-0.0163,-0.0104,-0.0077,-0.0043,0.0005,0.0019,0.0041,0.0055,0.0056,0.0103,0.0111,0.0018,0.0018,0.0019,0.0019,0,0,-0.0354,-0.0381,-0.0382,-0.0398,-0.0409,-0.0411,-0.0411,-0.039,-0.0384,-0.0324,-0.0292,-0.0204,-0.0161,-0.0124,-0.0065,-0.0016,0.0038,0.0011,0.0015,0.005,0.0153,0.0177,0.0189,0.0068,0.007,0.0071,0.0177,0,-0.0374,-0.0408,-0.0421,-0.0448,-0.0463,-0.0458,-0.0463,-0.0443,-0.0411,-0.0373,-0.0281,-0.023,-0.0178,-0.0149,-0.0088,0.0009,0.0059,0.0007,0.015,0.0154,0.0172,0.02,0.0188,0.0283,0.0185,0.0187,0.0188,0,-0.039,-0.0419,-0.0443,-0.0483,-0.0491,-0.0501,-0.051,-0.0515,-0.0463,-0.0437,-0.0369,-0.0301,-0.0205,-0.017,-0.0005,-0.0043,0.0042,0.0115,0.0122,0.016,0.0194,0.0267,0.0303,0.0203,0.0202,0.0201,0.02,0,-0.0388,-0.043,-0.0449,-0.046,-0.05,-0.0509,-0.0532,-0.0518,-0.0528,-0.0471,-0.046,-0.0338,-0.027,-0.0148,0.0009,-0.0001,0.0184,0.0197,0.0299,0.0301,0.0328,0.0331,0.03,0.03,0.03,0.03,0.0299,0,-0.0403,-0.0428,-0.0443,-0.0458,-0.0493,-0.0521,-0.0541,-0.0559,-0.0562,-0.0566,-0.0486,-0.0445,-0.0264,-0.0133,-0.0003,0.0184,0.0185,0.0297,0.0335,0.0314,0.0314,0.027,0.0265,0.0304,0.0303,0.0302,0.0301,0,-0.042,-0.0417,-0.0448,-0.0479,-0.0488,-0.0518,-0.0571,-0.059,-0.0605,-0.0609,-0.0598,-0.0504,-0.0332,-0.0149,0.0067,0.0174,0.0341,0.0403,0.0359,0.039,0.0417,0.0409,0.052,0.0522,0.0523,0.0524,0.0526,0,-0.0456,-0.0457,-0.0461,-0.0474,-0.0491,-0.0526,-0.0552,-0.0594,-0.0618,-0.0636,-0.0631,-0.0498,-0.0366,-0.0046,0.017,0.0409,0.0405,0.0512,0.0493,0.0416,0.0442,0.0431,0.0421,0.0516,0.0517,0.0518,0.0518,0,-0.0537,-0.0499,-0.0518,-0.0521,-0.0532,-0.0559,-0.0598,-0.0623,-0.0671,-0.0685,-0.0664,-0.0572,-0.027,0.0007,0.0306,0.0433,0.0472,0.0533,0.0491,0.0454,0.042,0.0442,0.0432,0.0525,0.0524,0.0524,0.0524,0.0523,-0.0597,-0.0606,-0.0582,-0.0591,-0.0595,-0.0603,-0.0621,-0.0654,-0.0695,-0.0702,-0.063,-0.0444,-0.0232,0.0241,0.04,0.0558,0.0559,0.0601,0.0596,0.0591,0.0563,0.0533,0.0654,0.0654,0.0654,0.0654,0.0655,0,-0.0674,-0.0658,-0.0672,-0.0656,-0.0661,-0.0642,-0.0664,-0.0682,-0.0709,-0.0604,-0.0538,-0.0281,0.003,0.0268,0.053,0.0647,0.0617,0.0654,0.06,0.0594,0.0588,0.0557,0.0648,0.0648,0.0648,0.0648,0,0,-0.0708,-0.0723,-0.0707,-0.0718,-0.0704,-0.0704,-0.0705,-0.0728,-0.0647,-0.0557,-0.0372,-0.0131,0.0139,0.031,0.0442,0.0574,0.0547,0.0572,0.057,0.0485,0.0478,0.0557,0.0503,0,0,0,0,0]}],[{"header":{"parameterUnit":"m.s-1","parameterCategory":2,"la1":30.2991,"la2":30.254,"lo1":-89.0895,"lo2":-89.0444,"dy":0.0017,"dx":0.0017,"nx":28,"ny":28,"refTime":"2025-01-23T09:00:00:Z","depth":"4","parameterNumber":2,"parameterNumberName":"U-component_of_CURRENTS"},"data":[0,0,0,0,0,0,0,0,0,0,0,0,0,0,0,0,0,0,0,0,0,0,0,0,0,0,0,0,0,0,0,0,0,0,0,0,0,0,0,0,0,0,0,0,0,0,0,0,0,0,0,0,0,0,0,0,0,0,-0.1402,-0.1403,0,-0.1481,-0.1482,-0.1483,-0.1507,-0.1506,-0.1506,-0.1506,-0.1553,-0.1554,-0.1556,0,0,0,0,0,0,0,0,0,0,0,0,0,-0.1292,-0.1294,-0.1402,-0.1403,-0.1404,-0.1481,-0.1482,-0.1483,-0.1507,-0.1506,-0.1506,-0.1506,-0.1552,-0.1554,-0.1556,0,0,0,0,0,0,0,0,0,0,0,0,0,-0.1351,-0.1294,-0.1401,-0.1426,-0.1429,-0.1481,-0.1482,-0.1483,-0.1507,-0.1506,-0.1506,-0.1506,-0.1552,-0.1554,-0.1556,-0.1579,0,0,-0.1563,-0.1564,0,0,0,0,0,0,0,0,-0.1348,-0.1355,-0.1421,-0.1424,-0.1428,-0.1485,-0.1461,-0.1514,-0.1507,-0.1476,-0.1506,-0.1505,-0.1528,-0.1532,-0.1547,-0.1581,-0.1583,-0.1563,-0.1565,-0.1566,-0.1567,0,0,0,0,0,0,0,-0.1344,-0.1352,-0.1432,-0.1422,-0.1426,-0.1441,-0.1448,-0.1471,-0.1502,-0.1479,-0.1481,-0.1492,-0.153,-0.1545,-0.1548,-0.1584,-0.1563,-0.1565,-0.1567,-0.1568,-0.1653,-0.1654,0,0,0,0,0,0,-0.1336,-0.1348,-0.1429,-0.1434,-0.1387,-0.1443,-0.1451,-0.1466,-0.1503,-0.1508,-0.1492,-0.1493,-0.1541,-0.1546,-0.155,-0.1615,-0.1566,-0.1568,-0.1569,-0.1653,-0.1654,-0.1655,0,0,0,0,0,0,-0.1333,-0.1343,-0.1426,-0.1394,-0.1405,-0.1445,-0.1461,-0.1468,-0.1505,-0.1513,-0.1518,-0.1525,-0.1541,-0.1547,-0.1586,-0.1615,-0.1569,-0.1571,-0.1651,-0.1653,-0.1654,-0.1721,0,0,0,0,0,0,-0.133,-0.1341,-0.1359,-0.1393,-0.1407,-0.1464,-0.1462,-0.147,-0.1511,-0.1513,-0.1543,-0.1546,-0.1541,-0.1583,-0.1588,-0.1617,-0.1573,-0.165,-0.1652,-0.1654,-0.1718,-0.1724,-0.173,0,0,0,0,0,-0.1326,-0.1353,-0.136,-0.137,-0.1427,-0.1465,-0.1474,-0.1499,-0.1514,-0.1531,-0.1554,-0.1546,-0.1596,-0.1586,-0.1592,-0.1622,-0.1649,-0.1652,-0.1654,-0.1715,-0.1723,-0.173,0,0,0,0,0,0,-0.1324,-0.1359,-0.1367,-0.1406,-0.1435,-0.147,-0.1501,-0.1517,-0.1552,-0.1564,-0.1567,-0.1572,-0.1614,-0.1609,-0.1597,-0.1649,-0.1618,-0.1622,-0.1663,-0.1671,-0.1677,-0.1674,-0.1575,0,0,0,0,0,-0.1329,-0.1356,-0.1387,-0.1421,-0.144,-0.1476,-0.1501,-0.1519,-0.1551,-0.1567,-0.1588,-0.1607,-0.1625,-0.1641,-0.1654,-0.1693,-0.1678,-0.1712,-0.1718,-0.1724,-0.1724,-0.1744,-0.1753,-0.1661,-0.1661,-0.1661,0,0,-0.1325,-0.1363,-0.1369,-0.1422,-0.1453,-0.1483,-0.1491,-0.154,-0.1568,-0.1567,-0.1622,-0.1636,-0.164,-0.1678,-0.1695,-0.168,-0.1737,-0.1726,-0.1731,-0.1728,-0.1747,-0.1756,-0.1764,-0.1663,-0.1662,-0.1662,0,0,-0.1338,-0.138,-0.1398,-0.1429,-0.1485,-0.1513,-0.1531,-0.158,-0.1606,-0.1652,-0.1659,-0.1695,-0.1723,-0.1737,-0.1744,-0.1795,-0.1771,-0.1797,-0.1831,-0.1852,-0.1859,-0.1866,-0.184,-0.1844,-0.18,-0.18,-0.18,0,-0.1341,-0.1368,-0.141,-0.1445,-0.1478,-0.1528,-0.1556,-0.1593,-0.1647,-0.1676,-0.1673,-0.1738,-0.1749,-0.1795,-0.1809,-0.1812,-0.1801,-0.1805,-0.1861,-0.1867,-0.1873,-0.1845,-0.1849,-0.1803,-0.1803,-0.1802,-0.1802,0,-0.1351,-0.1383,-0.1409,-0.1464,-0.1509,-0.1548,-0.1602,-0.1653,-0.1695,-0.1723,-0.1785,-0.1805,-0.1839,-0.1851,-0.1847,-0.1899,-0.1868,-0.1869,-0.1844,-0.1887,-0.1854,-0.1856,-0.1808,-0.1807,-0.1806,-0.1805,0,0,-0.1303,-0.1396,-0.1401,-0.1426,-0.1524,-0.1555,-0.1633,-0.1699,-0.1747,-0.1796,-0.185,-0.1891,-0.191,-0.1918,-0.1928,-0.1949,-0.1979,-0.1929,-0.1928,-0.1906,-0.1992,-0.1832,-0.1819,-0.1994,-0.1996,-0.1997,-0.1945,0,-0.1291,-0.1349,-0.1413,-0.1463,-0.1483,-0.1579,-0.1642,-0.1717,-0.1783,-0.185,-0.1891,-0.194,-0.1932,-0.1958,-0.1981,-0.1987,-0.1992,-0.199,-0.195,-0.1948,-0.1805,-0.1819,-0.2001,-0.1947,-0.1948,-0.1948,-0.1948,0,-0.1241,-0.1296,-0.135,-0.1447,-0.1472,-0.1528,-0.1651,-0.1713,-0.1827,-0.188,-0.1949,-0.1985,-0.2036,-0.2021,-0.204,-0.204,-0.2018,-0.201,-0.2008,-0.1838,-0.1794,-0.1899,-0.1952,-0.1952,-0.1952,-0.1951,-0.1951,0,-0.1139,-0.1232,-0.1283,-0.1316,-0.1448,-0.1508,-0.1587,-0.1714,-0.1762,-0.1903,-0.1952,-0.2024,-0.2052,-0.2062,-0.2041,-0.2052,-0.2037,-0.2049,-0.1877,-0.1864,-0.1996,-0.1989,-0.2052,-0.2052,-0.2053,-0.2053,-0.2053,0,-0.1083,-0.1115,-0.1237,-0.1265,-0.132,-0.1442,-0.1513,-0.1624,-0.1746,-0.179,-0.1948,-0.1978,-0.2066,-0.207,-0.2052,-0.1948,-0.204,-0.1871,-0.1844,-0.202,-0.2018,-0.1996,-0.199,-0.2051,-0.2051,-0.2052,-0.2052,0,-0.0989,-0.1063,-0.1107,-0.124,-0.1269,-0.1315,-0.1439,-0.1488,-0.1642,-0.1712,-0.1756,-0.1926,-0.1938,-0.1979,-0.1985,-0.1925,-0.1872,-0.181,-0.1963,-0.1947,-0.1683,-0.1682,-0.1621,-0.1615,-0.161,-0.1606,-0.1603,0,-0.0971,-0.0973,-0.1065,-0.1073,-0.1145,-0.1208,-0.1246,-0.1403,-0.1447,-0.1641,-0.1654,-0.1749,-0.1825,-0.1707,-0.178,-0.1727,-0.1708,-0.1677,-0.1712,-0.1661,-0.1642,-0.1648,-0.1653,-0.1595,-0.1593,-0.1592,-0.1591,0,-0.091,-0.0936,-0.0984,-0.0992,-0.1023,-0.1052,-0.1119,-0.112,-0.1295,-0.1433,-0.1494,-0.1542,-0.1555,-0.1583,-0.1549,-0.152,-0.1708,-0.1625,-0.1636,-0.1668,-0.1628,-0.1615,-0.1626,-0.1573,-0.1576,-0.1577,-0.1578,0,-0.0858,-0.0862,-0.089,-0.09,-0.0916,-0.0907,-0.0952,-0.0993,-0.1048,-0.1258,-0.1247,-0.1389,-0.15,-0.147,-0.1437,-0.1398,-0.1389,-0.1363,-0.1388,-0.1408,-0.1368,-0.1288,-0.1092,0,0,0,0,0,-0.08,-0.0783,-0.0785,-0.0779,-0.0799,-0.0812,-0.0876,-0.0932,-0.1056,-0.104,-0.1141,-0.1152,-0.1183,-0.1262,-0.1175,-0.1339,-0.1387,-0.1235,-0.1369,-0.1476,-0.1496,-0.1471,0,0,0,0,0,0,-0.0742,-0.0747,-0.075,-0.0675,-0.0654,-0.0667,-0.0703,-0.0797,-0.0787,-0.0927,-0.0936,-0.106,-0.1089,-0.119,-0.1144,-0.1159,-0.1213,-0.1302,-0.1298,-0.1464,-0.1483,-0.1499,-0.148,0,0,0,0,0]},{"header":{"parameterUnit":"m.s-1","parameterCategory":2,"la1":30.2991,"la2":30.254,"lo1":-89.0895,"lo2":-89.0444,"dy":0.0017,"dx":0.0017,"nx":28,"ny":28,"refTime":"2025-01-23T09:00:00:Z","depth":"4","parameterNumber":3,"parameterNumberName":"V-component_of_CURRENTS"},"data":[0,0,0,0,0,0,0,0,0,0,0,0,0,0,0,0,0,0,0,0,0,0,0,0,0,0,0,0,0,0,0,0,0,0,0,0,0,0,0,0,0,0,0,0,0,0,0,0,0,0,0,0,0,0,0,0,0,0,-0.019,-0.0189,0,-0.0157,-0.0157,-0.0157,-0.0127,-0.0126,-0.0126,-0.0126,-0.0055,-0.0053,-0.0052,0,0,0,0,0,0,0,0,0,0,0,0,0,-0.0188,-0.0189,-0.019,-0.0189,-0.0189,-0.0158,-0.0157,-0.0156,-0.0127,-0.0126,-0.0126,-0.0126,-0.0055,-0.0053,-0.0051,0,0,0,0,0,0,0,0,0,0,0,0,0,-0.0175,-0.0189,-0.019,-0.0171,-0.0169,-0.0158,-0.0157,-0.0156,-0.0127,-0.0126,-0.0126,-0.0125,-0.0056,-0.0053,-0.0051,-0.0045,0,0,-0.0044,-0.0043,0,0,0,0,0,0,0,0,-0.0176,-0.0175,-0.0174,-0.0172,-0.017,-0.0146,-0.0131,-0.0118,-0.0127,-0.0142,-0.0126,-0.0125,-0.0082,-0.0078,-0.0072,-0.0042,-0.0039,-0.0044,-0.0042,-0.0041,-0.004,0,0,0,0,0,0,0,-0.0177,-0.0176,-0.0176,-0.0174,-0.0171,-0.0151,-0.0149,-0.0128,-0.0114,-0.0141,-0.0139,-0.0136,-0.0081,-0.0075,-0.007,-0.0038,-0.0044,-0.0041,-0.004,-0.0039,0.0007,0.0007,0,0,0,0,0,0,-0.0185,-0.0178,-0.0177,-0.0175,-0.0173,-0.0152,-0.015,-0.0154,-0.0115,-0.0109,-0.0137,-0.0135,-0.0079,-0.0073,-0.0068,-0.0048,-0.0041,-0.0039,-0.0037,0.0007,0.0007,0.0007,0,0,0,0,0,0,-0.0185,-0.0186,-0.0178,-0.0176,-0.0173,-0.0153,-0.0157,-0.0153,-0.0149,-0.0113,-0.0106,-0.0137,-0.0079,-0.0071,-0.0048,-0.0046,-0.0038,-0.0036,0.0007,0.0007,0.0007,-0.0016,0,0,0,0,0,0,-0.0186,-0.0186,-0.0194,-0.0177,-0.0174,-0.0177,-0.0158,-0.0153,-0.0148,-0.0146,-0.011,-0.0103,-0.0078,-0.0052,-0.0045,-0.0042,-0.0034,0.0008,0.0007,0.0007,-0.0015,-0.0017,-0.0019,0,0,0,0,0,-0.0186,-0.0197,-0.0194,-0.0194,-0.0185,-0.0177,-0.0174,-0.0157,-0.0149,-0.015,-0.0123,-0.0104,-0.005,-0.005,-0.0042,-0.0039,0.0008,0.0007,0.0007,-0.0014,-0.0017,-0.0019,0,0,0,0,0,0,-0.0198,-0.0194,-0.0191,-0.0201,-0.0192,-0.0172,-0.0172,-0.0162,-0.0143,-0.0141,-0.0105,-0.0096,-0.0074,-0.0057,-0.0058,-0.0028,-0.0019,-0.0018,-0.0038,-0.004,-0.0042,-0.0054,-0.0032,0,0,0,0,0,-0.0206,-0.0216,-0.0205,-0.0213,-0.0211,-0.0194,-0.019,-0.0181,-0.0161,-0.0153,-0.0126,-0.0099,-0.0071,-0.0057,-0.0033,-0.0017,0.0014,-0.0011,-0.0013,-0.0015,-0.0021,0.0043,0.0047,0.0005,0.0005,0.0005,0,0,-0.0215,-0.0213,-0.0219,-0.0217,-0.0209,-0.0212,-0.019,-0.0189,-0.0188,-0.0148,-0.0136,-0.0105,-0.0069,-0.0048,-0.0037,-0.0032,0.0011,-0.0016,-0.0017,-0.0022,0.0043,0.0047,0.0051,0.0005,0.0005,0.0005,0,0,-0.0232,-0.0234,-0.0246,-0.0244,-0.0239,-0.023,-0.0233,-0.0217,-0.0204,-0.0193,-0.0157,-0.0124,-0.0096,-0.0058,-0.0038,-0.0038,-0.0001,-0.0037,-0.0054,0.0008,0.0012,0.0016,0.0053,0.0061,-0.0038,-0.0038,-0.0038,0,-0.0239,-0.0257,-0.0247,-0.0256,-0.0259,-0.0241,-0.0253,-0.0239,-0.0217,-0.0203,-0.0195,-0.0129,-0.0098,-0.0053,-0.0055,-0.0041,-0.0011,-0.0046,0.0007,0.0011,0.0016,0.0053,0.0062,-0.0039,-0.0039,-0.0039,-0.0039,0,-0.0267,-0.028,-0.0286,-0.0294,-0.0295,-0.0304,-0.0288,-0.0284,-0.0269,-0.0246,-0.0206,-0.0154,-0.0114,-0.0097,-0.0078,-0.0031,-0.0023,-0.0001,0.0015,0.0019,0.0057,0.0067,-0.0041,-0.0041,-0.004,-0.004,0,0,-0.0289,-0.0302,-0.0306,-0.0321,-0.0319,-0.0327,-0.0324,-0.0311,-0.0308,-0.0268,-0.0245,-0.0186,-0.0152,-0.0127,-0.0085,-0.0035,0.0024,-0.0013,-0.0009,0.0025,0.0144,0.0122,0.013,0.0058,0.006,0.0061,0.0154,0,-0.0314,-0.0339,-0.0339,-0.0372,-0.0386,-0.0375,-0.0373,-0.0358,-0.0337,-0.031,-0.0236,-0.0202,-0.0163,-0.0144,-0.0083,-0.0004,0.0049,-0.0005,0.0131,0.0135,0.0118,0.0141,0.0067,0.0162,0.0164,0.0166,0.0167,0,-0.0353,-0.036,-0.0393,-0.0413,-0.0419,-0.0435,-0.044,-0.0437,-0.0387,-0.0363,-0.0305,-0.0252,-0.0169,-0.0141,0.0009,-0.0028,0.005,0.0113,0.0119,0.0112,0.0131,0.0159,0.0185,0.0183,0.0182,0.0181,0.018,0,-0.0388,-0.041,-0.0439,-0.0448,-0.0458,-0.0472,-0.0477,-0.0452,-0.0452,-0.0396,-0.0385,-0.0273,-0.0222,-0.0101,0.0026,0.002,0.0189,0.0203,0.026,0.0258,0.0261,0.0256,0.0313,0.0312,0.0312,0.0312,0.0312,0,-0.0424,-0.045,-0.0461,-0.048,-0.0516,-0.0511,-0.0542,-0.0527,-0.0502,-0.0498,-0.0414,-0.0378,-0.021,-0.0097,0.0023,0.0168,0.0195,0.0258,0.0287,0.0246,0.0238,0.0267,0.0261,0.0315,0.0315,0.0314,0.0313,0,-0.0461,-0.0468,-0.051,-0.0527,-0.0539,-0.0569,-0.0596,-0.0608,-0.0582,-0.0575,-0.0559,-0.0445,-0.0294,-0.0128,0.0073,0.0151,0.0298,0.0344,0.0274,0.0297,0.0324,0.0315,0.0411,0.0411,0.0411,0.0411,0.0411,0,-0.0479,-0.0504,-0.0551,-0.0582,-0.0596,-0.0635,-0.0656,-0.0648,-0.0656,-0.0614,-0.0601,-0.0471,-0.0375,-0.01,0.0066,0.0298,0.0327,0.0381,0.0363,0.0318,0.0337,0.0328,0.0319,0.0411,0.0411,0.0411,0.0411,0,-0.0511,-0.0536,-0.0564,-0.0623,-0.0666,-0.0707,-0.0732,-0.0742,-0.0727,-0.0712,-0.0619,-0.0485,-0.0315,-0.0101,0.008,0.0243,0.0333,0.0383,0.0384,0.0367,0.032,0.0337,0.0328,0.0412,0.0412,0.0412,0.0411,0,-0.0536,-0.0565,-0.0609,-0.0656,-0.0716,-0.075,-0.0765,-0.0751,-0.0748,-0.0691,-0.0659,-0.0476,-0.0366,-0.0129,0.0037,0.0196,0.0229,0.0254,0.0262,0.0263,0.0189,0.0105,0.016,0,0,0,0,0,-0.0547,-0.0575,-0.0633,-0.0688,-0.0747,-0.0772,-0.08,-0.0803,-0.079,-0.0726,-0.0689,-0.0525,-0.0279,-0.0166,-0.0005,0.0028,0.0244,0.0214,0.0274,0.0414,0.0413,0.0348,0,0,0,0,0,0,-0.0558,-0.0608,-0.0629,-0.0697,-0.0738,-0.0795,-0.081,-0.0803,-0.0753,-0.0719,-0.0567,-0.0514,-0.0249,-0.0357,-0.0006,0.0038,0.0088,0.0334,0.0336,0.0414,0.0413,0.0413,0.0346,0,0,0,0,0]}]]